Showing default

QIANFAN-42, 62243

Orbit data source: Space-Track

QIANFAN-42, 62243 is a Chinese payload satellite in LEO that was launched on Thu, 05 Dec 2024 UTC via a CHANG ZHENG 6A launch vehicle from the Taiyaun Space Center, China (TSC). Payloads include a variety of satellites, spacecraft, and rockets equipped with specific instruments for various scientific and technological missions. These include communications satellites like Starlink; space stations such as the ISS; scientific satellites like the Hubble; Earth observation satellites from companies like Planet Labs, Umbra, and HawkEye 360; GPS; miniature CubeSats for education and research; and military/defense satellites.

Loading next visibility...
QIANFAN-42 details
Identifier
62243, 2024-232G
Orbit
LEO
Last TLE update11 hours ago
Origin
Flag of CNYUANX (CN / PRC)
ManufacturerSECM
MissionOperational Commercial Communications
Bus & MotorQIANFAN, Unknown motor
Mass300 kg wet, ~300 kg dry
Launch date (UTC)
2024-12-05 (2 months ago)
Launch vehicle
CHANG ZHENG 6A
Launch site
Taiyaun Space Center, China (TSC)
Object type
Payload
Rocket body
Debris
Shape & HBRBox + 1 Pan, 10 m
Radar Cross Section13.200 m², Large (>1 m²)

Expand to show TLE details & history

TLE from 11 hours ago
0 QIANFAN-42
1 62243U 24232G   25035.82832104  .00000477  00000-0  20052-3 0  9993
2 62243  88.9886  73.0421 0015851  29.6938 330.5151 14.24171111 57115
Epoch: 2025-02-04T19:52Z
Definitive object data (Epoch: 2025-02-04T19:52:46.937Z)
Latitude-0.00002°
Longitude-0.38148°
Altitude804.422 km
Speed7.456 km/s
True Right ascension04h 52m 10s
True Declination0° 00' 00"
Sunlit
Object was in daylight at TLE epoch
Visualization TLE readout
Latitude-36.83099°
Longitude-179.68147°
Altitude836.64 km
Speed7.427 km/s
Apparent Right ascension18h 47m 34s
Apparent Declination-42° 25' 02"
Sunlit
Object is in daylight
Visualization observer readout
Local Sidereal Time09:02:55
Azimuth106.769° ESE
Elevation-64.576°
Doppler factor1
Orbital elements
Apogee altitude819.617 km
Perigee altitude796.835 km
Semi-major axis7,186.363 km
Eccentricity0.0015851
Inclination88.9886°
RAAN73.0421°
Arg. of periapsis29.6938°
True anomaly330.42554°
Mean anomaly330.5151°
Eccentric anomaly330.47034°
Mean motion3.5627 °/min
BSTAR0.00020052
Orbital period101.05 mins
Loading maneuver chart data...
Loading historical data...
Loading historical data...
Loading historical data...
Loading historical data...
Loading historical data...
Loading historical data...
Loading historical data...

QIANFAN-42 Visibility forecast

Observer location: undefined°, undefined

Span
Click to sort rows by Start time (UTC) header in descending order
Start Az.
Max El. time (UTC)
Max El. Az.
Max El.
End time (UTC)
End Az.
5 mins2025-02-05 13:20:39.204Z45.245° ENE2025-02-05 13:23:39.204Z81.453° E15.452°2025-02-05 13:25:39.204Z105.976° ESE
8 mins2025-02-05 15:01:39.204Z346.341° N2025-02-05 15:04:39.204Z288.57° WNW40.324°2025-02-05 15:09:39.204Z198.171° SSW
8 mins2025-02-06 02:21:39.204Z153.873° SSE2025-02-06 02:25:39.204Z64.527° ENE37.957°2025-02-06 02:29:39.204Z10.961° NNE
5 mins2025-02-06 04:04:39.204Z255.107° W2025-02-06 04:06:39.204Z281.545° WNW16.521°2025-02-06 04:09:39.204Z318.205° NNW
|